Location: Unspecified
(0.0000°N, 0.0000°E)
Time: 08:22:27
(UTC+02:00)

Cosmos 1908 Rocket - Visible Passes

Search period start: 22 October 2014 00:00
Search period end: 31 October 2014 23:00
Orbit: 609 x 633 km, 82.5° (Epoch: 21 October)

Date Brightness Start Highest point End Pass type
(mag) Time Alt. Az. Time Alt. Az. Time Alt. Az.
22 Oct 4.4 20:06:53 10° NNE 20:10:40 28° E 20:14:25 10° SE visible
22 Oct 7.0 21:47:40 10° W 21:48:16 10° W 21:48:52 10° WSW visible
23 Oct 3.5 20:24:10 10° N 20:28:32 68° E 20:32:52 10° S visible
24 Oct 4.6 20:42:10 10° NNW 20:46:24 48° W 20:50:37 10° SSW visible
25 Oct 6.3 21:00:59 10° NW 21:04:15 21° W 21:07:32 10° SW visible
28 Oct 5.1 19:16:08 10° NNW 19:20:14 41° W 19:24:21 10° SSW visible
29 Oct 7.3 05:50:20 10° ESE 05:51:32 11° E 05:52:44 10° ENE visible
29 Oct 6.7 19:35:08 10° NW 19:38:06 18° W 19:41:04 10° SW visible
30 Oct 6.2 06:05:45 10° SSE 06:09:24 25° E 06:13:03 10° NE visible
